Total_Precipitation_Accumulation
0.34 0.33 0.42 0.62 0.73 0.63 0.66 0.77 1.04 0.94 0.82 0.80 0.77 0.80 0.80 0.85 0.87 0.88 0.93 0.93 0.89 0.89 0.93 1.03 1.06 1.07 1.17 1.24 1.28 1.38 1.44 1.39 1.36 1.25 1.12 1.06 1.05 0.99 1.06 1.13 1.11 1.17 1.24 1.33
0.19 0.18 0.27 0.52 0.62 0.63 0.61 0.61 0.64 0.59 0.57 0.48 0.47 0.52 0.58 0.64 0.62 0.65 0.71 0.71 0.69 0.67 0.69 0.76 0.70 0.72 0.79 0.95 1.12 1.29 1.36 1.32 1.20 1.09 1.06 1.01 0.93 0.89 0.94 0.97 1.01 1.06 1.11 1.28
0.29 0.21 0.30 0.53 0.53 0.57 0.43 0.31 0.31 0.38 0.40 0.33 0.34 0.42 0.48 0.57 0.59 0.55 0.59 0.61 0.63 0.63 0.60 0.64 0.60 0.62 0.70 0.79 0.96 1.08 1.15 1.12 1.01 0.93 0.90 0.87 0.81 0.84 0.89 0.91 0.95 0.99 0.98 1.12
0.43 0.41 0.63 0.72 0.55 0.48 0.41 0.26 0.19 0.22 0.25 0.26 0.28 0.36 0.39 0.47 0.57 0.53 0.49 0.52 0.57 0.59 0.57 0.60 0.65 0.69 0.77 0.83 0.86 0.94 1.03 1.02 0.95 0.86 0.81 0.79 0.73 0.77 0.89 0.89 0.86 0.90 0.90 0.89
0.56 0.57 0.60 0.55 0.38 0.36 0.46 0.44 0.23 0.18 0.19 0.20 0.23 0.31 0.33 0.35 0.40 0.41 0.37 0.34 0.34 0.38 0.41 0.47 0.52 0.57 0.60 0.63 0.66 0.71 0.77 0.82 0.79 0.71 0.73 0.80 0.74 0.80 0.85 0.84 0.84 0.81 0.85 0.85
0.63 0.65 0.68 0.48 0.23 0.20 0.36 0.60 0.28 0.16 0.13 0.13 0.19 0.32 0.30 0.23 0.25 0.26 0.27 0.25 0.22 0.23 0.25 0.30 0.35 0.47 0.53 0.52 0.48 0.50 0.54 0.58 0.63 0.61 0.63 0.71 0.79 0.84 0.83 0.80 0.85 0.82 0.78 0.75
0.71 0.82 0.86 0.57 0.30 0.25 0.53 0.64 0.30 0.16 0.13 0.14 0.18 0.22 0.21 0.19 0.20 0.19 0.21 0.23 0.22 0.22 0.23 0.27 0.31 0.37 0.41 0.47 0.45 0.45 0.48 0.49 0.50 0.53 0.57 0.67 0.73 0.68 0.67 0.69 0.76 0.77 0.78 0.73
0.89 1.10 1.19 0.74 0.51 0.53 0.50 0.32 0.21 0.15 0.14 0.17 0.19 0.18 0.17 0.17 0.18 0.15 0.17 0.20 0.19 0.21 0.24 0.29 0.30 0.30 0.33 0.35 0.36 0.39 0.42 0.45 0.43 0.40 0.42 0.48 0.54 0.59 0.59 0.60 0.62 0.62 0.63 0.62
0.98 0.99 0.84 0.61 0.52 0.42 0.34 0.28 0.18 0.18 0.18 0.18 0.19 0.17 0.17 0.16 0.15 0.13 0.15 0.17 0.19 0.23 0.28 0.32 0.33 0.30 0.29 0.30 0.32 0.38 0.42 0.44 0.42 0.40 0.39 0.41 0.47 0.52 0.57 0.61 0.62 0.59 0.55 0.53
0.49 0.49 0.43 0.35 0.31 0.27 0.24 0.23 0.18 0.16 0.18 0.21 0.21 0.20 0.18 0.17 0.16 0.15 0.15 0.17 0.19 0.24 0.28 0.34 0.34 0.33 0.32 0.30 0.29 0.33 0.38 0.42 0.40 0.42 0.42 0.41 0.44 0.50 0.59 0.60 0.55 0.51 0.52 0.53
0.31 0.27 0.26 0.25 0.23 0.22 0.22 0.18 0.15 0.14 0.17 0.22 0.22 0.20 0.18 0.18 0.20 0.19 0.18 0.17 0.19 0.23 0.27 0.32 0.36 0.35 0.34 0.32 0.29 0.30 0.34 0.37 0.36 0.39 0.43 0.41 0.38 0.40 0.49 0.52 0.50 0.51 0.52 0.55
0.25 0.17 0.19 0.22 0.19 0.18 0.19 0.17 0.15 0.16 0.20 0.21 0.19 0.17 0.17 0.18 0.22 0.23 0.21 0.19 0.21 0.22 0.26 0.27 0.31 0.36 0.38 0.40 0.36 0.34 0.33 0.36 0.37 0.38 0.43 0.43 0.40 0.38 0.41 0.43 0.48 0.50 0.47 0.46
0.16 0.12 0.12 0.15 0.14 0.13 0.14 0.12 0.14 0.16 0.19 0.19 0.18 0.19 0.16 0.16 0.21 0.24 0.24 0.25 0.28 0.29 0.28 0.25 0.26 0.30 0.33 0.41 0.41 0.42 0.40 0.39 0.40 0.40 0.40 0.41 0.44 0.44 0.44 0.39 0.35 0.36 0.39 0.36
0.10 0.11 0.14 0.16 0.15 0.11 0.11 0.11 0.15 0.16 0.16 0.17 0.18 0.17 0.16 0.16 0.20 0.20 0.23 0.27 0.28 0.28 0.29 0.30 0.29 0.30 0.35 0.42 0.46 0.51 0.54 0.54 0.49 0.45 0.43 0.42 0.43 0.48 0.52 0.53 0.45 0.35 0.34 0.35
0.11 0.13 0.17 0.17 0.16 0.13 0.12 0.12 0.15 0.14 0.15 0.16 0.15 0.17 0.19 0.22 0.23 0.24 0.23 0.22 0.21 0.22 0.22 0.26 0.28 0.29 0.34 0.36 0.39 0.44 0.52 0.56 0.56 0.55 0.52 0.50 0.50 0.55 0.57 0.53 0.46 0.42 0.38 0.36
0.16 0.13 0.14 0.14 0.15 0.14 0.11 0.12 0.13 0.13 0.14 0.14 0.15 0.19 0.24 0.27 0.28 0.29 0.26 0.21 0.19 0.18 0.18 0.23 0.27 0.27 0.29 0.29 0.31 0.36 0.38 0.45 0.53 0.58 0.57 0.55 0.57 0.58 0.57 0.54 0.47 0.43 0.40 0.37
0.16 0.19 0.18 0.17 0.16 0.16 0.16 0.15 0.14 0.13 0.12 0.11 0.15 0.22 0.26 0.26 0.26 0.29 0.30 0.26 0.24 0.21 0.19 0.22 0.26 0.26 0.26 0.25 0.27 0.30 0.31 0.34 0.40 0.47 0.51 0.51 0.53 0.55 0.57 0.57 0.52 0.49 0.46 0.44
0.15 0.18 0.20 0.19 0.17 0.18 0.18 0.19 0.18 0.15 0.13 0.12 0.14 0.22 0.29 0.30 0.30 0.32 0.35 0.32 0.27 0.23 0.22 0.24 0.24 0.24 0.25 0.27 0.29 0.31 0.31 0.33 0.35 0.38 0.43 0.46 0.47 0.49 0.53 0.56 0.55 0.53 0.53 0.53
0.15 0.16 0.17 0.16 0.14 0.15 0.17 0.18 0.19 0.21 0.20 0.17 0.14 0.20 0.28 0.34 0.38 0.36 0.35 0.36 0.34 0.35 0.34 0.34 0.35 0.29 0.27 0.31 0.33 0.29 0.28 0.29 0.31 0.35 0.39 0.42 0.43 0.43 0.47 0.50 0.51 0.51 0.49 0.50
0.21 0.23 0.24 0.20 0.16 0.14 0.15 0.17 0.18 0.20 0.22 0.22 0.19 0.20 0.28 0.34 0.36 0.33 0.31 0.32 0.38 0.45 0.45 0.45 0.43 0.38 0.35 0.35 0.37 0.31 0.31 0.32 0.36 0.39 0.37 0.35 0.37 0.40 0.43 0.45 0.48 0.50 0.53 0.54
0.28 0.33 0.31 0.26 0.20 0.16 0.14 0.15 0.16 0.19 0.21 0.21 0.23 0.26 0.33 0.41 0.40 0.37 0.34 0.33 0.35 0.40 0.44 0.47 0.45 0.44 0.42 0.44 0.45 0.39 0.37 0.36 0.38 0.40 0.40 0.39 0.37 0.39 0.42 0.46 0.50 0.54 0.58 0.59
0.30 0.31 0.29 0.29 0.26 0.21 0.20 0.18 0.19 0.19 0.20 0.21 0.23 0.27 0.35 0.43 0.45 0.41 0.36 0.39 0.42 0.45 0.43 0.43 0.42 0.47 0.52 0.52 0.43 0.41 0.41 0.41 0.42 0.41 0.40 0.41 0.44 0.45 0.46 0.51 0.55 0.58 0.61 0.62
0.29 0.29 0.33 0.35 0.33 0.30 0.27 0.25 0.26 0.26 0.26 0.28 0.29 0.32 0.35 0.39 0.46 0.50 0.43 0.38 0.40 0.45 0.43 0.45 0.48 0.51 0.56 0.50 0.46 0.45 0.44 0.41 0.41 0.42 0.44 0.46 0.48 0.50 0.54 0.56 0.57 0.59 0.65 0.70
0.25 0.28 0.33 0.36 0.36 0.34 0.34 0.34 0.35 0.35 0.34 0.34 0.35 0.37 0.38 0.41 0.45 0.52 0.47 0.44 0.47 0.49 0.43 0.49 0.53 0.56 0.57 0.45 0.45 0.50 0.52 0.50 0.49 0.49 0.52 0.53 0.52 0.54 0.57 0.61 0.62 0.65 0.71 0.78
0.23 0.23 0.27 0.33 0.35 0.35 0.33 0.32 0.34 0.36 0.36 0.35 0.37 0.40 0.41 0.45 0.51 0.56 0.52 0.45 0.48 0.52 0.52 0.58 0.60 0.58 0.54 0.52 0.52 0.54 0.57 0.59 0.63 0.63 0.59 0.60 0.61 0.64 0.66 0.69 0.73 0.76 0.77 0.79
0.22 0.20 0.23 0.28 0.31 0.31 0.29 0.29 0.31 0.34 0.36 0.35 0.35 0.39 0.42 0.44 0.49 0.56 0.60 0.55 0.52 0.56 0.57 0.58 0.58 0.58 0.56 0.62 0.65 0.65 0.65 0.66 0.65 0.61 0.58 0.59 0.61 0.62 0.63 0.65 0.68 0.73 0.78 0.79
0.22 0.20 0.21 0.25 0.27 0.26 0.26 0.29 0.32 0.35 0.37 0.39 0.39 0.40 0.39 0.42 0.46 0.52 0.60 0.60 0.57 0.56 0.60 0.62 0.61 0.60 0.60 0.64 0.68 0.72 0.72 0.70 0.68 0.66 0.65 0.66 0.66 0.67 0.67 0.67 0.70 0.74 0.79 0.83